This is the latest recevied weather packets stored in our database for station/object IW5CTE-13. If no packets are shown the sender has not sent any weather packets the latest 10 day(s).
| Time | Temp. | Humidity | Pressure | Rain* | Wind** | Luminosity | Snow |
|---|---|---|---|---|---|---|---|
| 1777907852 | 19.44° C | 71% | 1018.9 hPa | - | - | - | - |
| 1777907253 | 19.44° C | 71% | 1018.8 hPa | - | - | - | - |
| 1777906653 | 19.44° C | 71% | 1019 hPa | - | - | - | - |
| 1777906052 | 19.44° C | 72% | 1018.9 hPa | - | - | - | - |
| 1777905452 | 19.44° C | 74% | 1019.1 hPa | - | - | - | - |
| 1777904852 | 19.44° C | 74% | 1019.2 hPa | - | - | - | - |
| 1777904252 | 19.44° C | 67% | 1019.2 hPa | - | - | - | - |
| 1777903652 | 20° C | 68% | 1019.2 hPa | - | - | - | - |
| 1777903052 | 20° C | 67% | 1019.1 hPa | - | - | - | - |
| 1777902453 | 20° C | 65% | 1019.1 hPa | - | - | - | - |
| 1777901852 | 20° C | 65% | 1019.2 hPa | - | - | - | - |
| 1777901253 | 20.56° C | 63% | 1019.2 hPa | - | - | - | - |
| 1777900653 | 20.56° C | 64% | 1019.3 hPa | - | - | - | - |
| 1777900052 | 20° C | 64% | 1019.4 hPa | - | - | - | - |
| 1777899452 | 20.56° C | 63% | 1019.4 hPa | - | - | - | - |
| 1777898853 | 20.56° C | 63% | 1019.5 hPa | - | - | - | - |
| 1777898253 | 20.56° C | 61% | 1019.6 hPa | - | - | - | - |
| 1777897652 | 21.11° C | 61% | 1019.7 hPa | - | - | - | - |
| 1777897053 | 21.11° C | 59% | 1019.7 hPa | - | - | - | - |
| 1777896452 | 21.11° C | 62% | 1019.8 hPa | - | - | - | - |
| 1777895852 | 21.67° C | 60% | 1019.7 hPa | - | - | - | - |
| 1777895253 | 21.67° C | 60% | 1019.7 hPa | - | - | - | - |
| 1777894652 | 21.67° C | 61% | 1019.8 hPa | - | - | - | - |
| 1777894053 | 21.11° C | 64% | 1019.9 hPa | - | - | - | - |
| 1777893452 | 20.56° C | 63% | 1020 hPa | - | - | - | - |
* Rain since midnight (hover to see other rain measurements)
** Current wind speed in m/s (hover to see current wind gust speed)